This is the latest recevied weather packets stored in our database for station/object IW1QQG-13. If no packets are shown the sender has not sent any weather packets the latest 10 day(s).
| Time | Temp. | Humidity | Pressure | Rain* | Wind** | Luminosity | Snow |
|---|---|---|---|---|---|---|---|
| 1777979754 | 16.11° C | 90% | 1012.9 hPa | 0 mm | - | 175 W/m² | - |
| 1777979154 | 15.56° C | 93% | 1012.9 hPa | 0 mm | - | 174 W/m² | - |
| 1777978553 | 15.56° C | 94% | 1012.9 hPa | 0 mm | - | 163 W/m² | - |
| 1777977953 | 15.56° C | 92% | 1012.9 hPa | 0 mm | - | 108 W/m² | - |
| 1777977353 | 15.56° C | 93% | 1012.9 hPa | 0 mm | - | 236 W/m² | - |
| 1777976753 | 16.11° C | 92% | 1012.9 hPa | 0 mm | - | 126 W/m² | - |
| 1777976153 | 15.56° C | 91% | 1012.9 hPa | 0 mm | - | 124 W/m² | - |
| 1777975553 | 15° C | 92% | 1012.9 hPa | 0 mm | - | 150 W/m² | - |
| 1777974953 | 15° C | 96% | 1012.9 hPa | 0 mm | - | 164 W/m² | - |
| 1777974354 | 15° C | 96% | 1012.9 hPa | 0 mm | - | 98 W/m² | - |
| 1777973153 | 15° C | 95% | 1012.5 hPa | 0 mm | - | 116 W/m² | - |
| 1777972553 | 15° C | 96% | 1012.5 hPa | 0 mm | - | 81 W/m² | - |
| 1777971353 | 15° C | 96% | 1012.9 hPa | 0 mm | - | 172 W/m² | - |
| 1777970753 | 15° C | 95% | 1012.9 hPa | 0 mm | - | 69 W/m² | - |
| 1777970153 | 15° C | 96% | 1012.5 hPa | 0 mm | - | 157 W/m² | - |
| 1777969553 | 15° C | 96% | 1012.5 hPa | 0 mm | - | 75 W/m² | - |
| 1777968953 | 15° C | 96% | 1012.5 hPa | 0 mm | - | 51 W/m² | - |
| 1777968353 | 15° C | 95% | 1012.2 hPa | 0 mm | - | 120 W/m² | - |
| 1777967753 | 15° C | 95% | 1012.5 hPa | 0 mm | - | 85 W/m² | - |
| 1777967153 | 15° C | 94% | 1012.5 hPa | 0 mm | - | 120 W/m² | - |
| 1777966553 | 15° C | 95% | 1012.2 hPa | 0 mm | - | 210 W/m² | - |
| 1777965953 | 15° C | 96% | 1012.2 hPa | 0 mm | - | 138 W/m² | - |
| 1777965353 | 15° C | 96% | 1012.2 hPa | 0 mm | - | 155 W/m² | - |
| 1777964753 | 14.44° C | 96% | 1012.2 hPa | 0 mm | - | 117 W/m² | - |
| 1777964153 | 14.44° C | 97% | 1012.2 hPa | 0 mm | - | 103 W/m² | - |
* Rain latest hour (hover to see other rain measurements)
** Current wind speed in m/s (hover to see current wind gust speed)